Back to catalog

FENGYUN 1C DEB

LostSSO
NORAD 37702·DEBRIS·🇨🇳 China

Launched May 10, 1999 from Taiyuan Satellite Launch Center

Loading…

Next Passes (next 24 hours)

TLE

StaleSource: Space-Track

Epoch: Apr 21, 2015, 06:21 UTC

1 37702U 99025ELT 15111.26525699 +.00001378 +00000-0 +65167-3 0  9994
2 37702 098.8885 128.1113 0048112 295.7409 062.2457 14.20776337324854

Track FENGYUN 1C DEB in real time with AllMySat

Download on the App Store